CST,Max TemperatureF,Mean TemperatureF,Min TemperatureF,Max Dew PointF,MeanDew PointF,Min DewpointF,Max Humidity, Mean Humidity, Min Humidity, Max Sea Level PressureIn, Mean Sea Level PressureIn, Min Sea Level PressureIn, Max VisibilityMiles, Mean VisibilityMiles, Min VisibilityMiles, Max Wind SpeedMPH, Mean Wind SpeedMPH, Max Gust SpeedMPH,PrecipitationIn, CloudCover, Events, WindDirDegrees
2012-11-1,82,63,44,50,45,41,90,58,27,30.04,29.97,29.89,10,10,7,13,3,17,0.00,1,,122
2012-11-2,86,66,48,54,50,46,90,55,27,29.96,29.90,29.85,10,10,10,18,5,24,0.00,1,,190
2012-11-3,70,61,52,54,42,36,81,52,31,30.13,30.06,29.91,10,10,10,13,7,17,0.00,1,,9
2012-11-4,73,58,43,48,40,37,82,61,30,30.19,30.13,30.05,10,10,10,6,3,,0.00,1,,39
2012-11-5,70,59,46,51,42,35,93,63,29,30.11,30.06,29.99,10,9,7,18,6,29,0.00,2,,318
2012-11-6,69,52,34,41,37,32,93,65,31,30.17,30.10,30.04,10,10,4,12,3,,0.00,1,,315
2012-11-7,66,50,34,35,31,26,92,54,22,30.20,30.14,30.10,10,10,10,10,2,,0.00,1,,48
2012-11-8,73,60,46,48,39,28,54,45,32,30.13,30.03,29.94,10,10,10,17,6,26,0.00,1,,154
2012-11-9,80,70,60,59,55,48,78,64,44,30.01,29.95,29.87,10,9,6,16,12,31,0.00,3,,179
2012-11-10,75,68,62,58,56,54,82,65,46,30.00,29.91,29.80,10,10,10,23,13,38,0.00,4,,173
2012-11-11,70,54,36,63,48,29,94,83,63,30.29,29.97,29.76,10,7,1,28,14,38,0.62,7,Rain-Thunderstorm,334
2012-11-12,53,40,28,33,25,21,89,66,29,30.52,30.46,30.32,10,10,10,7,4,,0.00,1,,4
2012-11-13,57,42,26,32,24,15,92,59,19,30.54,30.45,30.35,10,10,10,7,1,,0.00,1,,193
2012-11-14,59,44,28,32,28,23,92,58,26,30.45,30.37,30.30,10,10,10,9,2,,0.00,2,,188
2012-11-15,63,48,32,35,29,26,85,58,25,30.36,30.32,30.26,10,10,10,8,1,,0.00,2,,173
2012-11-16,64,47,30,37,31,28,92,64,27,30.45,30.39,30.35,10,10,10,6,1,,0.00,1,,67
2012-11-17,64,47,30,31,27,22,88,52,20,30.44,30.36,30.30,10,10,10,10,2,16,0.00,1,,169
2012-11-18,64,50,36,37,33,29,82,48,31,30.34,30.26,30.20,10,10,10,10,4,20,0.00,2,Rain,153
2012-11-19,71,63,51,47,42,35,74,50,39,30.21,30.17,30.11,10,10,10,15,7,20,0.00,5,Rain,179
2012-11-20,75,60,44,51,45,41,90,70,38,30.22,30.18,30.13,10,10,10,7,1,,0.00,1,,292
2012-11-21,77,58,39,46,39,33,97,60,20,30.28,30.19,30.10,10,8,2,9,3,,0.00,1,,167
2012-11-22,73,66,59,47,44,42,60,48,33,30.15,30.05,29.97,10,10,10,20,9,32,0.00,2,Rain,183
2012-11-23,62,50,36,53,29,18,84,45,23,30.47,30.38,30.18,10,10,6,25,14,34,0.07,3,Rain,5
2012-11-24,59,42,24,25,20,18,88,48,20,30.44,30.28,30.09,10,10,10,12,3,,0.00,1,,179
2012-11-25,69,56,44,47,32,22,60,41,26,30.06,29.93,29.83,10,10,10,13,9,22,0.00,1,,173
2012-11-26,64,52,39,56,44,27,88,70,54,30.32,30.04,29.85,10,10,9,20,10,29,0.00,6,,349
2012-11-27,52,41,30,30,27,25,86,70,35,30.47,30.39,30.32,10,9,7,15,8,,0.00,3,,13
2012-11-28,60,45,30,33,30,26,85,58,35,30.45,30.35,30.24,10,10,10,13,4,20,0.00,1,,161
2012-11-29,64,55,46,39,34,30,61,45,33,30.25,30.16,30.07,10,10,10,14,9,24,0.00,1,,178
2012-11-30,66,60,54,57,51,40,88,75,57,30.15,30.08,30.02,10,9,7,16,10,24,0.00,4,,173